Time,TemperatureF,DewpointF,PressureIn,WindDirection,WindDirectionDegrees,WindSpeedMPH,WindSpeedGustMPH,Humidity,HourlyPrecipIn,Conditions,Clouds,dailyrainin,SoftwareType,DateUTC
2013-03-08 00:00:00,29.5,26.1,18.63,North,353,0.0,0.0,87,0.00,,---,0.00,VWS V13.01,2013-03-08 05:00:00,
2013-03-08 00:01:00,29.5,26.1,18.63,North,353,0.0,0.0,87,0.00,,---,0.00,VWS V13.01,2013-03-08 05:01:00,
2013-03-08 00:02:00,29.5,26.1,18.63,North,353,0.0,0.0,87,0.00,,---,0.00,VWS V13.01,2013-03-08 05:02:00,
2013-03-08 00:03:00,29.5,26.1,18.63,North,353,0.0,0.0,87,0.00,,---,0.00,VWS V13.01,2013-03-08 05:03:00,
2013-03-08 00:08:00,29.5,26.1,18.63,North,353,0.0,0.0,87,0.00,,---,0.00,VWS V13.01,2013-03-08 05:08:00,
2013-03-08 00:13:00,29.5,26.1,18.63,North,353,0.0,0.0,87,0.00,,---,0.00,VWS V13.01,2013-03-08 05:13:00,
2013-03-08 00:18:00,29.5,26.1,18.63,North,353,0.0,0.0,87,0.00,,---,0.00,VWS V13.01,2013-03-08 05:18:00,
2013-03-08 00:23:00,29.5,26.4,18.63,North,353,0.0,0.0,88,0.00,,---,0.00,VWS V13.01,2013-03-08 05:23:00,
2013-03-08 00:28:00,29.7,26.5,18.63,North,353,0.0,0.0,88,0.00,,---,0.00,VWS V13.01,2013-03-08 05:28:00,
2013-03-08 00:33:00,29.7,26.5,18.63,North,353,0.0,0.0,88,0.00,,---,0.00,VWS V13.01,2013-03-08 05:33:00,
2013-03-08 00:38:00,29.7,26.5,18.63,North,353,0.0,0.0,88,0.00,,---,0.00,VWS V13.01,2013-03-08 05:38:00,
2013-03-08 00:43:00,29.7,26.5,18.63,North,353,0.0,0.0,88,0.00,,---,0.00,VWS V13.01,2013-03-08 05:43:00,
2013-03-08 00:48:00,29.7,26.5,18.63,North,353,0.0,0.0,88,0.00,,---,0.00,VWS V13.01,2013-03-08 05:48:00,
2013-03-08 00:53:00,29.5,26.4,18.63,NNW,342,4.9,5.4,88,0.00,,---,0.00,VWS V13.01,2013-03-08 05:53:00,
2013-03-08 00:58:00,29.5,26.6,18.63,North,357,5.4,6.3,89,0.00,,---,0.00,VWS V13.01,2013-03-08 05:58:00,
2013-03-08 01:03:00,29.5,26.6,18.63,North,357,4.0,6.3,89,0.00,,---,0.00,VWS V13.01,2013-03-08 06:03:00,
2013-03-08 01:09:00,29.5,26.6,18.63,North,0,2.7,6.3,89,0.00,,---,0.00,VWS V13.01,2013-03-08 06:09:00,
2013-03-08 01:14:00,29.5,26.6,18.63,NNW,340,5.4,5.4,89,0.00,,---,0.00,VWS V13.01,2013-03-08 06:14:00,
2013-03-08 01:19:00,29.5,26.6,18.63,North,0,0.0,5.4,89,0.00,,---,0.00,VWS V13.01,2013-03-08 06:19:00,
2013-03-08 01:24:00,29.5,26.6,18.63,North,353,0.0,0.0,89,0.00,,---,0.00,VWS V13.01,2013-03-08 06:24:00,
2013-03-08 01:29:00,29.5,26.6,18.63,North,9,2.7,4.0,89,0.00,,---,0.00,VWS V13.01,2013-03-08 06:29:00,
2013-03-08 01:34:00,29.5,26.6,18.63,North,353,0.0,3.1,89,0.00,,---,0.00,VWS V13.01,2013-03-08 06:34:00,
2013-03-08 01:39:00,29.5,26.6,18.63,North,0,0.0,4.0,89,0.00,,---,0.00,VWS V13.01,2013-03-08 06:39:00,
2013-03-08 01:44:00,29.5,26.6,18.63,North,353,0.0,4.0,89,0.00,,---,0.00,VWS V13.01,2013-03-08 06:44:00,
2013-03-08 01:49:00,29.5,26.6,18.63,NNE,17,0.0,4.0,89,0.00,,---,0.00,VWS V13.01,2013-03-08 06:49:00,
2013-03-08 01:54:00,29.3,26.5,18.63,NNW,345,0.0,0.0,89,0.00,,---,0.00,VWS V13.01,2013-03-08 06:54:00,
2013-03-08 01:59:00,29.3,26.5,18.63,NNE,23,0.0,4.0,89,0.00,,---,0.00,VWS V13.01,2013-03-08 06:59:00,
2013-03-08 02:04:00,29.3,26.5,18.63,North,357,3.6,4.0,89,0.00,,---,0.00,VWS V13.01,2013-03-08 07:04:00,
2013-03-08 02:09:00,29.3,26.2,18.63,NNW,346,0.0,5.4,88,0.00,,---,0.00,VWS V13.01,2013-03-08 07:09:00,
2013-03-08 02:14:00,29.1,26.0,18.63,North,350,2.7,4.0,88,0.00,,---,0.00,VWS V13.01,2013-03-08 07:14:00,
2013-03-08 02:19:00,29.1,26.0,18.63,NNW,331,2.7,5.4,88,0.00,,---,0.00,VWS V13.01,2013-03-08 07:19:00,
2013-03-08 02:25:00,29.1,26.0,18.63,North,357,4.0,5.8,88,0.00,,---,0.00,VWS V13.01,2013-03-08 07:25:00,
2013-03-08 02:30:00,29.1,26.0,18.63,North,0,3.6,3.6,88,0.00,,---,0.00,VWS V13.01,2013-03-08 07:30:00,
2013-03-08 02:35:00,29.1,26.0,18.63,North,0,0.0,4.0,88,0.00,,---,0.00,VWS V13.01,2013-03-08 07:35:00,
2013-03-08 02:40:00,28.9,25.8,18.63,NNW,339,0.0,0.0,88,0.00,,---,0.00,VWS V13.01,2013-03-08 07:40:00,
2013-03-08 02:45:00,29.1,26.0,18.63,North,0,0.0,4.5,88,0.00,,---,0.00,VWS V13.01,2013-03-08 07:45:00,
2013-03-08 02:50:00,29.1,26.0,18.63,NW,323,2.7,3.1,88,0.00,,---,0.00,VWS V13.01,2013-03-08 07:50:00,
2013-03-08 02:55:00,29.1,26.3,18.63,NW,322,0.0,3.1,89,0.00,,---,0.00,VWS V13.01,2013-03-08 07:55:00,
2013-03-08 03:00:00,29.1,26.3,18.63,WNW,300,0.0,0.0,89,0.00,,---,0.00,VWS V13.01,2013-03-08 08:00:00,
2013-03-08 03:05:00,29.1,26.3,18.63,WNW,302,0.0,0.0,89,0.00,,---,0.00,VWS V13.01,2013-03-08 08:05:00,
2013-03-08 03:10:00,29.1,26.3,18.63,NW,314,0.0,0.0,89,0.00,,---,0.00,VWS V13.01,2013-03-08 08:10:00,
2013-03-08 03:15:00,29.1,26.3,18.63,NW,314,0.0,0.0,89,0.00,,---,0.00,VWS V13.01,2013-03-08 08:15:00,
2013-03-08 03:20:00,29.1,26.3,18.63,NW,309,0.0,0.0,89,0.00,,---,0.00,VWS V13.01,2013-03-08 08:20:00,
2013-03-08 03:25:00,29.1,26.3,18.63,NW,309,0.0,0.0,89,0.00,,---,0.00,VWS V13.01,2013-03-08 08:25:00,
2013-03-08 03:30:00,29.3,26.5,18.63,NW,305,0.0,0.0,89,0.00,,---,0.00,VWS V13.01,2013-03-08 08:30:00,
2013-03-08 03:36:00,29.3,26.5,18.63,NW,305,0.0,0.0,89,0.00,,---,0.00,VWS V13.01,2013-03-08 08:36:00,
2013-03-08 03:41:00,29.1,26.3,18.63,WNW,301,0.0,0.0,89,0.00,,---,0.00,VWS V13.01,2013-03-08 08:41:00,
2013-03-08 03:48:00,29.1,26.3,18.63,WNW,300,0.0,0.0,89,0.00,,---,0.00,VWS V13.01,2013-03-08 08:48:00,
2013-03-08 03:53:00,29.1,26.3,18.63,WNW,300,0.0,0.0,89,0.00,,---,0.00,VWS V13.01,2013-03-08 08:53:00,
2013-03-08 03:58:00,28.9,26.1,18.63,WNW,301,0.0,0.0,89,0.00,,---,0.00,VWS V13.01,2013-03-08 08:58:00,
2013-03-08 04:03:00,28.9,26.1,18.63,NW,310,0.0,0.0,89,0.00,,---,0.00,VWS V13.01,2013-03-08 09:03:00,
2013-03-08 04:09:00,28.9,26.1,18.63,NW,305,0.0,0.0,89,0.00,,---,0.00,VWS V13.01,2013-03-08 09:09:00,
2013-03-08 04:14:00,28.9,26.1,18.63,NW,312,0.0,3.6,89,0.00,,---,0.00,VWS V13.01,2013-03-08 09:14:00,
2013-03-08 04:19:00,28.9,26.1,18.63,NW,312,0.0,3.6,89,0.00,,---,0.00,VWS V13.01,2013-03-08 09:19:00,
2013-03-08 04:24:00,28.9,26.1,18.63,WNW,298,0.0,0.0,89,0.00,,---,0.00,VWS V13.01,2013-03-08 09:24:00,
2013-03-08 04:29:00,29.1,26.3,18.63,WNW,301,0.0,0.0,89,0.00,,---,0.00,VWS V13.01,2013-03-08 09:29:00,
2013-03-08 04:34:00,29.1,26.3,18.63,NW,309,2.2,4.0,89,0.00,,---,0.00,VWS V13.01,2013-03-08 09:34:00,
2013-03-08 04:39:00,29.1,26.3,18.63,WNW,298,0.0,4.0,89,0.00,,---,0.00,VWS V13.01,2013-03-08 09:39:00,
2013-03-08 04:44:00,29.1,26.3,18.63,WNW,298,0.0,0.0,89,0.00,,---,0.00,VWS V13.01,2013-03-08 09:44:00,
2013-03-08 04:49:00,29.1,26.3,18.63,WNW,298,0.0,0.0,89,0.00,,---,0.00,VWS V13.01,2013-03-08 09:49:00,
2013-03-08 04:54:00,29.1,26.3,18.63,North,353,0.0,0.0,89,0.00,,---,0.00,VWS V13.01,2013-03-08 09:54:00,
2013-03-08 04:59:00,29.3,26.5,18.63,North,0,0.0,0.0,89,0.00,,---,0.00,VWS V13.01,2013-03-08 09:59:00,
2013-03-08 05:04:00,29.3,26.2,18.63,North,0,0.0,0.0,88,0.00,,---,0.00,VWS V13.01,2013-03-08 10:04:00,
2013-03-08 05:09:00,29.3,26.2,18.63,West,275,0.0,0.0,88,0.00,,---,0.00,VWS V13.01,2013-03-08 10:09:00,
2013-03-08 05:14:00,29.3,26.2,18.63,NW,320,0.0,0.0,88,0.00,,---,0.00,VWS V13.01,2013-03-08 10:14:00,
2013-03-08 05:19:00,29.5,26.4,18.63,WNW,293,0.0,0.0,88,0.00,,---,0.00,VWS V13.01,2013-03-08 10:19:00,
2013-03-08 05:24:00,29.5,26.4,18.63,NW,308,0.0,0.0,88,0.00,,---,0.00,VWS V13.01,2013-03-08 10:24:00,
2013-03-08 05:29:00,29.5,26.4,18.63,NW,308,0.0,0.0,88,0.00,,---,0.00,VWS V13.01,2013-03-08 10:29:00,
2013-03-08 05:35:00,29.5,26.4,18.63,NW,308,0.0,0.0,88,0.00,,---,0.00,VWS V13.01,2013-03-08 10:35:00,
2013-03-08 05:40:00,29.5,26.4,18.63,North,11,0.0,0.0,88,0.00,,---,0.00,VWS V13.01,2013-03-08 10:40:00,
2013-03-08 05:45:00,29.5,26.4,18.63,North,353,0.0,0.0,88,0.00,,---,0.00,VWS V13.01,2013-03-08 10:45:00,
2013-03-08 05:50:00,29.5,26.4,18.63,North,353,0.0,0.0,88,0.00,,---,0.00,VWS V13.01,2013-03-08 10:50:00,
2013-03-08 05:55:00,29.5,26.4,18.63,NW,312,0.0,0.0,88,0.00,,---,0.00,VWS V13.01,2013-03-08 10:55:00,
2013-03-08 06:00:00,29.5,26.4,18.63,NW,311,2.7,2.7,88,0.00,,---,0.00,VWS V13.01,2013-03-08 11:00:00,
2013-03-08 06:05:00,29.5,26.4,18.63,NW,308,0.0,2.7,88,0.00,,---,0.00,VWS V13.01,2013-03-08 11:05:00,
2013-03-08 06:10:00,29.5,26.4,18.63,NW,308,0.0,0.0,88,0.00,,---,0.00,VWS V13.01,2013-03-08 11:10:00,
2013-03-08 06:15:00,29.5,26.4,18.63,NW,308,0.0,0.0,88,0.00,,---,0.00,VWS V13.01,2013-03-08 11:15:00,
2013-03-08 06:20:00,29.7,26.5,18.63,NW,308,0.0,0.0,88,0.00,,---,0.00,VWS V13.01,2013-03-08 11:20:00,
2013-03-08 06:25:00,29.7,26.5,18.63,NW,317,0.0,6.3,88,0.00,,---,0.00,VWS V13.01,2013-03-08 11:25:00,
2013-03-08 06:30:00,29.7,26.5,18.63,NE,41,0.0,0.0,88,0.00,,---,0.00,VWS V13.01,2013-03-08 11:30:00,
2013-03-08 06:35:00,29.7,26.5,18.63,North,4,0.0,0.0,88,0.00,,---,0.00,VWS V13.01,2013-03-08 11:35:00,
2013-03-08 06:40:00,29.8,26.5,18.63,North,353,0.0,0.0,87,0.00,,---,0.00,VWS V13.01,2013-03-08 11:40:00,
2013-03-08 06:45:00,29.8,26.5,18.63,NW,307,0.0,0.0,87,0.00,,---,0.00,VWS V13.01,2013-03-08 11:45:00,
2013-03-08 06:50:00,29.8,26.5,18.63,NW,305,0.0,0.0,87,0.00,,---,0.00,VWS V13.01,2013-03-08 11:50:00,
2013-03-08 06:55:00,29.8,26.5,18.63,NNE,17,0.0,0.0,87,0.00,,---,0.00,VWS V13.01,2013-03-08 11:55:00,
2013-03-08 07:00:00,29.8,26.5,18.63,NNE,21,0.0,0.0,87,0.00,,---,0.00,VWS V13.01,2013-03-08 12:00:00,
2013-03-08 07:06:00,30.0,26.4,18.63,NW,305,3.1,5.8,86,0.00,,---,0.00,VWS V13.01,2013-03-08 12:06:00,
2013-03-08 07:11:00,30.0,26.4,18.63,NNW,336,0.0,5.4,86,0.00,,---,0.00,VWS V13.01,2013-03-08 12:11:00,
2013-03-08 07:16:00,30.0,26.4,18.63,WNW,297,0.0,5.4,86,0.00,,---,0.00,VWS V13.01,2013-03-08 12:16:00,
2013-03-08 07:21:00,30.2,26.2,18.63,NW,320,0.0,0.0,85,0.00,,---,0.00,VWS V13.01,2013-03-08 12:21:00,
2013-03-08 07:26:00,30.2,26.2,18.63,WNW,294,0.0,0.0,85,0.00,,---,0.00,VWS V13.01,2013-03-08 12:26:00,
2013-03-08 07:31:00,30.4,26.1,18.63,NW,310,3.6,4.0,84,0.00,,---,0.00,VWS V13.01,2013-03-08 12:31:00,
2013-03-08 07:36:00,30.4,26.1,18.63,NNW,335,0.0,4.0,84,0.00,,---,0.00,VWS V13.01,2013-03-08 12:36:00,
2013-03-08 07:41:00,30.6,26.0,18.63,NW,307,0.0,0.0,83,0.00,,---,0.00,VWS V13.01,2013-03-08 12:41:00,
2013-03-08 07:46:00,30.9,26.1,18.63,NW,307,0.0,0.0,82,0.00,,---,0.00,VWS V13.01,2013-03-08 12:46:00,
2013-03-08 07:51:00,31.1,25.7,18.63,NNW,333,0.0,0.0,80,0.00,,---,0.00,VWS V13.01,2013-03-08 12:51:00,
2013-03-08 07:56:00,31.3,25.5,18.63,North,4,3.6,4.0,79,0.00,,---,0.00,VWS V13.01,2013-03-08 12:56:00,
2013-03-08 08:01:00,31.6,24.3,18.63,North,353,4.0,8.7,74,0.00,,---,0.00,VWS V13.01,2013-03-08 13:01:00,
2013-03-08 08:06:00,31.8,23.2,18.63,NNW,329,4.0,10.1,70,0.00,,---,0.00,VWS V13.01,2013-03-08 13:06:00,
2013-03-08 08:12:00,32.2,23.2,18.63,NW,314,3.6,4.5,69,0.00,,---,0.00,VWS V13.01,2013-03-08 13:12:00,
2013-03-08 08:17:00,32.4,22.6,18.63,North,349,0.0,4.9,67,0.00,,---,0.00,VWS V13.01,2013-03-08 13:17:00,
2013-03-08 08:22:00,32.5,21.7,18.63,NNE,15,3.6,6.3,64,0.00,,---,0.00,VWS V13.01,2013-03-08 13:22:00,
2013-03-08 08:27:00,32.7,21.9,18.63,NE,46,6.7,6.7,64,0.00,,---,0.00,VWS V13.01,2013-03-08 13:27:00,
2013-03-08 08:32:00,32.9,21.3,18.63,North,2,3.1,8.7,62,0.00,,---,0.00,VWS V13.01,2013-03-08 13:32:00,
2013-03-08 08:37:00,33.3,21.3,18.63,NNW,341,5.8,8.7,61,0.00,,---,0.00,VWS V13.01,2013-03-08 13:37:00,
2013-03-08 08:42:00,33.6,20.4,18.63,North,349,5.4,5.8,58,0.00,,---,0.00,VWS V13.01,2013-03-08 13:42:00,
2013-03-08 08:47:00,34.0,20.4,18.63,NW,324,0.0,7.6,57,0.00,,---,0.00,VWS V13.01,2013-03-08 13:47:00,
2013-03-08 08:52:00,34.3,20.3,18.63,North,4,0.0,5.8,56,0.00,,---,0.00,VWS V13.01,2013-03-08 13:52:00,
2013-03-08 08:57:00,34.5,19.6,18.63,NNW,344,5.4,8.1,54,0.00,,---,0.00,VWS V13.01,2013-03-08 13:57:00,
2013-03-08 09:02:00,34.9,19.5,18.63,North,7,5.8,7.6,53,0.00,,---,0.00,VWS V13.01,2013-03-08 14:02:00,
2013-03-08 09:08:00,35.1,19.7,18.63,North,0,10.1,10.1,53,0.00,,---,0.00,VWS V13.01,2013-03-08 14:08:00,
2013-03-08 09:13:00,35.2,19.4,18.63,NE,40,7.6,8.1,52,0.00,,---,0.00,VWS V13.01,2013-03-08 14:13:00,
2013-03-08 09:18:00,35.2,18.9,18.63,North,5,7.6,10.5,51,0.00,,---,0.00,VWS V13.01,2013-03-08 14:18:00,
2013-03-08 09:23:00,35.8,19.4,18.63,North,353,5.8,7.6,51,0.00,,---,0.00,VWS V13.01,2013-03-08 14:23:00,
2013-03-08 09:28:00,35.8,19.0,18.63,NNE,14,4.0,10.1,50,0.00,,---,0.00,VWS V13.01,2013-03-08 14:28:00,
2013-03-08 09:33:00,36.1,18.8,18.63,North,6,5.4,7.6,49,0.00,,---,0.00,VWS V13.01,2013-03-08 14:33:00,
2013-03-08 09:38:00,36.1,18.4,18.63,North,357,8.3,10.1,48,0.00,,---,0.00,VWS V13.01,2013-03-08 14:38:00,
2013-03-08 09:43:00,36.3,18.0,18.63,North,7,6.3,8.3,47,0.00,,---,0.00,VWS V13.01,2013-03-08 14:43:00,
2013-03-08 09:48:00,36.3,17.5,18.63,NNW,342,12.3,12.3,46,0.00,,---,0.00,VWS V13.01,2013-03-08 14:48:00,
2013-03-08 09:53:00,36.3,17.5,18.63,North,0,5.4,9.6,46,0.00,,---,0.00,VWS V13.01,2013-03-08 14:53:00,
2013-03-08 09:58:00,36.7,17.4,18.63,NNE,27,5.4,9.6,45,0.00,,---,0.00,VWS V13.01,2013-03-08 14:58:00,
2013-03-08 10:03:00,36.5,16.7,18.63,North,357,8.1,10.5,44,0.00,,---,0.00,VWS V13.01,2013-03-08 15:03:00,
2013-03-08 10:09:00,36.7,16.8,18.63,WNW,295,6.3,10.5,44,0.00,,---,0.00,VWS V13.01,2013-03-08 15:09:00,
2013-03-08 10:14:00,37.0,16.6,18.63,North,357,8.1,8.3,43,0.00,,---,0.00,VWS V13.01,2013-03-08 15:14:00,
2013-03-08 10:19:00,36.7,16.3,18.63,NNW,338,10.5,14.5,43,0.00,,---,0.00,VWS V13.01,2013-03-08 15:19:00,
2013-03-08 10:24:00,36.5,16.1,18.63,North,11,5.8,10.5,43,0.00,,---,0.00,VWS V13.01,2013-03-08 15:24:00,
2013-03-08 10:29:00,36.1,15.8,18.63,North,0,7.6,14.5,43,0.00,,---,0.00,VWS V13.01,2013-03-08 15:29:00,
2013-03-08 10:34:00,36.1,15.8,18.63,NNW,332,5.8,12.3,43,0.00,,---,0.00,VWS V13.01,2013-03-08 15:34:00,
2013-03-08 10:39:00,35.6,15.3,18.63,North,357,8.1,12.8,43,0.00,,---,0.00,VWS V13.01,2013-03-08 15:39:00,
2013-03-08 10:44:00,36.3,15.4,18.63,NE,37,5.4,12.3,42,0.00,,---,0.00,VWS V13.01,2013-03-08 15:44:00,
2013-03-08 10:49:00,36.7,15.8,18.63,North,357,5.8,12.8,42,0.00,,---,0.00,VWS V13.01,2013-03-08 15:49:00,
2013-03-08 10:54:00,37.4,15.9,18.63,North,1,5.8,12.8,41,0.00,,---,0.00,VWS V13.01,2013-03-08 15:54:00,
2013-03-08 10:59:00,37.6,16.0,18.63,NNW,339,8.3,12.8,41,0.00,,---,0.00,VWS V13.01,2013-03-08 15:59:00,
2013-03-08 11:04:00,38.1,16.5,18.63,NNE,18,4.9,11.4,41,0.00,,---,0.00,VWS V13.01,2013-03-08 16:04:00,
2013-03-08 11:10:00,37.9,16.4,18.63,North,0,10.5,10.5,41,0.00,,---,0.00,VWS V13.01,2013-03-08 16:10:00,
2013-03-08 11:15:00,37.4,15.9,18.63,NNE,17,8.1,12.8,41,0.00,,---,0.00,VWS V13.01,2013-03-08 16:15:00,
2013-03-08 11:20:00,37.8,16.2,18.63,North,1,9.6,9.6,41,0.00,,---,0.00,VWS V13.01,2013-03-08 16:20:00,
2013-03-08 11:25:00,37.8,15.6,18.63,NNW,340,10.5,15.0,40,0.00,,---,0.00,VWS V13.01,2013-03-08 16:25:00,
2013-03-08 11:30:00,37.4,15.3,18.63,NE,34,7.6,8.7,40,0.00,,---,0.00,VWS V13.01,2013-03-08 16:30:00,
2013-03-08 11:35:00,38.5,16.8,18.63,North,357,6.3,8.7,41,0.00,,---,0.00,VWS V13.01,2013-03-08 16:35:00,
2013-03-08 11:40:00,37.6,16.0,18.63,NNW,342,5.8,8.1,41,0.00,,---,0.00,VWS V13.01,2013-03-08 16:40:00,
2013-03-08 11:45:00,37.9,15.8,18.63,NW,324,11.0,12.8,40,0.00,,---,0.00,VWS V13.01,2013-03-08 16:45:00,
2013-03-08 11:50:00,38.5,16.3,18.63,North,8,5.4,7.6,40,0.00,,---,0.00,VWS V13.01,2013-03-08 16:50:00,
2013-03-08 11:56:00,38.1,15.9,18.63,NE,49,7.6,12.8,40,0.00,,---,0.00,VWS V13.01,2013-03-08 16:56:00,
2013-03-08 12:01:00,38.5,16.8,18.63,NNW,342,6.3,8.3,41,0.00,,---,0.00,VWS V13.01,2013-03-08 17:01:00,
2013-03-08 12:06:00,39.0,16.8,18.63,NNW,339,4.0,12.3,40,0.00,,---,0.00,VWS V13.01,2013-03-08 17:06:00,
2013-03-08 12:11:00,38.5,16.3,18.63,NNE,25,5.4,8.7,40,0.00,,---,0.00,VWS V13.01,2013-03-08 17:11:00,
2013-03-08 12:16:00,38.3,16.7,18.63,North,7,6.3,11.0,41,0.00,,---,0.00,VWS V13.01,2013-03-08 17:16:00,
2013-03-08 12:21:00,38.1,15.9,18.63,North,8,4.9,8.7,40,0.00,,---,0.00,VWS V13.01,2013-03-08 17:21:00,
2013-03-08 12:26:00,39.0,16.8,18.63,North,357,8.1,10.1,40,0.00,,---,0.00,VWS V13.01,2013-03-08 17:26:00,
2013-03-08 12:31:00,38.7,17.0,18.63,NW,316,3.6,7.6,41,0.00,,---,0.00,VWS V13.01,2013-03-08 17:31:00,
2013-03-08 12:36:00,39.0,16.8,18.63,North,349,5.8,11.4,40,0.00,,---,0.00,VWS V13.01,2013-03-08 17:36:00,
2013-03-08 12:41:00,38.7,16.4,18.63,West,267,5.8,8.1,40,0.00,,---,0.00,VWS V13.01,2013-03-08 17:41:00,
2013-03-08 12:47:00,38.7,17.0,18.63,NNE,17,10.5,10.5,41,0.00,,---,0.00,VWS V13.01,2013-03-08 17:47:00,
2013-03-08 12:52:00,38.3,16.1,18.63,NNE,30,8.3,12.3,40,0.00,,---,0.00,VWS V13.01,2013-03-08 17:52:00,
2013-03-08 12:57:00,38.1,16.5,18.63,NW,317,3.1,12.3,41,0.00,,---,0.00,VWS V13.01,2013-03-08 17:57:00,
2013-03-08 13:02:00,38.1,16.5,18.63,NNE,28,6.3,8.1,41,0.00,,---,0.00,VWS V13.01,2013-03-08 18:02:00,
2013-03-08 13:07:00,38.1,16.5,18.63,North,6,5.4,8.7,41,0.00,,---,0.00,VWS V13.01,2013-03-08 18:07:00,
2013-03-08 13:12:00,38.3,16.7,18.63,North,4,3.6,10.5,41,0.00,,---,0.00,VWS V13.01,2013-03-08 18:12:00,
2013-03-08 13:17:00,38.3,16.7,18.63,NNE,22,6.7,10.5,41,0.00,,---,0.00,VWS V13.01,2013-03-08 18:17:00,
2013-03-08 13:22:00,38.1,16.5,18.63,NNE,17,7.6,10.1,41,0.00,,---,0.00,VWS V13.01,2013-03-08 18:22:00,
2013-03-08 13:27:00,37.9,16.4,18.63,North,353,5.8,10.1,41,0.00,,---,0.00,VWS V13.01,2013-03-08 18:27:00,
2013-03-08 13:32:00,38.1,16.5,18.63,NNW,331,5.8,8.7,41,0.00,,---,0.00,VWS V13.01,2013-03-08 18:32:00,
2013-03-08 13:37:00,38.3,16.7,18.63,North,2,3.1,8.7,41,0.00,,---,0.00,VWS V13.01,2013-03-08 18:37:00,
2013-03-08 13:42:00,38.1,16.5,18.63,NNE,15,8.3,10.1,41,0.00,,---,0.00,VWS V13.01,2013-03-08 18:42:00,
2013-03-08 13:47:00,37.9,16.4,18.63,North,4,7.6,10.1,41,0.00,,---,0.00,VWS V13.01,2013-03-08 18:47:00,
2013-03-08 13:53:00,38.1,16.5,18.63,North,357,5.4,8.1,41,0.00,,---,0.00,VWS V13.01,2013-03-08 18:53:00,
2013-03-08 13:58:00,37.9,16.9,18.63,NNW,334,4.9,8.7,42,0.00,,---,0.00,VWS V13.01,2013-03-08 18:58:00,
2013-03-08 14:03:00,37.9,16.4,18.63,North,353,7.6,11.0,41,0.00,,---,0.00,VWS V13.01,2013-03-08 19:03:00,
2013-03-08 14:08:00,38.1,17.1,18.63,North,4,7.6,11.0,42,0.00,,---,0.00,VWS V13.01,2013-03-08 19:08:00,
2013-03-08 14:13:00,38.1,17.1,18.63,North,0,8.1,8.3,42,0.00,,---,0.00,VWS V13.01,2013-03-08 19:13:00,
2013-03-08 14:18:00,38.1,17.1,18.63,North,357,0.0,8.3,42,0.00,,---,0.00,VWS V13.01,2013-03-08 19:18:00,
2013-03-08 14:23:00,38.5,17.4,18.63,North,2,4.0,8.7,42,0.00,,---,0.00,VWS V13.01,2013-03-08 19:23:00,
2013-03-08 14:28:00,38.5,17.4,18.63,North,10,7.6,8.7,42,0.00,,---,0.00,VWS V13.01,2013-03-08 19:28:00,
2013-03-08 14:33:00,38.5,17.4,18.63,North,0,4.0,8.7,42,0.00,,---,0.00,VWS V13.01,2013-03-08 19:33:00,
2013-03-08 14:38:00,38.5,17.4,18.63,NNW,339,5.8,8.7,42,0.00,,---,0.00,VWS V13.01,2013-03-08 19:38:00,
2013-03-08 14:43:00,38.7,17.6,18.63,North,349,6.3,7.6,42,0.00,,---,0.00,VWS V13.01,2013-03-08 19:43:00,
2013-03-08 14:49:00,38.7,17.6,18.63,NNW,333,3.6,8.3,42,0.00,,---,0.00,VWS V13.01,2013-03-08 19:49:00,
2013-03-08 14:54:00,38.5,16.8,18.63,NNW,342,6.3,8.7,41,0.00,,---,0.00,VWS V13.01,2013-03-08 19:54:00,
2013-03-08 14:59:00,38.3,17.2,18.63,WNW,302,3.1,10.1,42,0.00,,---,0.00,VWS V13.01,2013-03-08 19:59:00,
2013-03-08 15:04:00,38.5,16.8,18.63,WNW,292,8.1,8.1,41,0.00,,---,0.00,VWS V13.01,2013-03-08 20:04:00,
2013-03-08 15:09:00,38.5,16.8,18.63,North,353,6.3,8.1,41,0.00,,---,0.00,VWS V13.01,2013-03-08 20:09:00,
2013-03-08 15:14:00,38.5,17.4,18.63,NNW,344,4.9,8.7,42,0.00,,---,0.00,VWS V13.01,2013-03-08 20:14:00,
2013-03-08 15:19:00,38.3,17.2,18.63,NW,309,4.0,9.6,42,0.00,,---,0.00,VWS V13.01,2013-03-08 20:19:00,
2013-03-08 15:24:00,38.3,17.2,18.63,North,3,4.9,4.9,42,0.00,,---,0.00,VWS V13.01,2013-03-08 20:24:00,
2013-03-08 15:29:00,38.3,17.2,18.63,NW,323,3.1,7.2,42,0.00,,---,0.00,VWS V13.01,2013-03-08 20:29:00,
2013-03-08 15:34:00,38.5,17.4,18.63,NNW,340,8.7,8.7,42,0.00,,---,0.00,VWS V13.01,2013-03-08 20:34:00,
2013-03-08 15:39:00,38.3,17.2,18.63,WNW,291,5.4,8.7,42,0.00,,---,0.00,VWS V13.01,2013-03-08 20:39:00,
2013-03-08 15:44:00,38.5,17.4,18.63,North,0,5.8,6.7,42,0.00,,---,0.00,VWS V13.01,2013-03-08 20:44:00,
2013-03-08 15:49:00,38.3,17.2,18.63,North,8,8.3,8.3,42,0.00,,---,0.00,VWS V13.01,2013-03-08 20:49:00,
2013-03-08 15:55:00,38.3,17.2,18.63,North,357,8.3,8.3,42,0.00,,---,0.00,VWS V13.01,2013-03-08 20:55:00,
2013-03-08 16:00:00,38.1,17.1,18.63,North,0,4.9,4.9,42,0.00,,---,0.00,VWS V13.01,2013-03-08 21:00:00,
2013-03-08 16:05:00,38.1,17.1,18.63,NNE,12,4.0,8.1,42,0.00,,---,0.00,VWS V13.01,2013-03-08 21:05:00,
2013-03-08 16:10:00,38.1,17.1,18.63,NNW,341,5.8,8.1,42,0.00,,---,0.00,VWS V13.01,2013-03-08 21:10:00,
2013-03-08 16:15:00,38.1,17.1,18.63,North,357,8.7,8.7,42,0.00,,---,0.00,VWS V13.01,2013-03-08 21:15:00,
2013-03-08 16:20:00,37.9,16.9,18.63,NNW,342,3.1,3.1,42,0.00,,---,0.00,VWS V13.01,2013-03-08 21:20:00,
2013-03-08 16:25:00,37.9,17.5,18.63,North,11,4.0,6.3,43,0.00,,---,0.00,VWS V13.01,2013-03-08 21:25:00,
2013-03-08 16:30:00,37.9,16.9,18.63,North,3,5.8,7.6,42,0.00,,---,0.00,VWS V13.01,2013-03-08 21:30:00,
2013-03-08 16:35:00,37.8,17.3,18.63,WNW,302,3.1,7.6,43,0.00,,---,0.00,VWS V13.01,2013-03-08 21:35:00,
2013-03-08 16:40:00,37.8,17.3,18.63,NW,324,4.9,4.9,43,0.00,,---,0.00,VWS V13.01,2013-03-08 21:40:00,
2013-03-08 16:45:00,37.8,17.3,18.63,WNW,301,7.6,7.6,43,0.00,,---,0.00,VWS V13.01,2013-03-08 21:45:00,
2013-03-08 16:51:00,37.8,17.8,18.63,NNW,345,8.3,8.3,44,0.00,,---,0.00,VWS V13.01,2013-03-08 21:51:00,
2013-03-08 16:56:00,37.6,17.1,18.63,NNW,332,5.8,8.3,43,0.00,,---,0.00,VWS V13.01,2013-03-08 21:56:00,
2013-03-08 17:01:00,37.6,17.7,18.63,NNW,344,2.7,4.0,44,0.00,,---,0.00,VWS V13.01,2013-03-08 22:01:00,
2013-03-08 17:06:00,37.6,17.7,18.63,North,353,0.0,5.8,44,0.00,,---,0.00,VWS V13.01,2013-03-08 22:06:00,
2013-03-08 17:11:00,37.4,17.5,18.63,NNW,330,0.0,3.1,44,0.00,,---,0.00,VWS V13.01,2013-03-08 22:11:00,
2013-03-08 17:16:00,37.4,18.0,18.63,North,349,2.7,6.3,45,0.00,,---,0.00,VWS V13.01,2013-03-08 22:16:00,
2013-03-08 17:21:00,37.0,18.2,18.63,WNW,295,0.0,0.0,46,0.00,,---,0.00,VWS V13.01,2013-03-08 22:21:00,
2013-03-08 17:26:00,37.0,18.2,18.63,NW,315,5.8,5.8,46,0.00,,---,0.00,VWS V13.01,2013-03-08 22:26:00,
2013-03-08 17:31:00,37.0,18.2,18.63,NW,317,0.0,3.6,46,0.00,,---,0.00,VWS V13.01,2013-03-08 22:31:00,
2013-03-08 17:37:00,36.9,18.5,18.63,NNW,328,0.0,5.8,47,0.00,,---,0.00,VWS V13.01,2013-03-08 22:37:00,
2013-03-08 17:42:00,36.7,18.4,18.63,North,353,0.0,0.0,47,0.00,,---,0.00,VWS V13.01,2013-03-08 22:42:00,
2013-03-08 17:47:00,36.5,18.2,18.63,WNW,303,0.0,0.0,47,0.00,,---,0.00,VWS V13.01,2013-03-08 22:47:00,
2013-03-08 17:52:00,36.3,18.0,18.63,NW,304,2.7,6.3,47,0.00,,---,0.00,VWS V13.01,2013-03-08 22:52:00,
2013-03-08 17:57:00,36.1,18.4,18.63,NW,307,0.0,6.3,48,0.00,,---,0.00,VWS V13.01,2013-03-08 22:57:00,
2013-03-08 18:02:00,36.0,18.7,18.63,NW,307,0.0,0.0,49,0.00,,---,0.00,VWS V13.01,2013-03-08 23:02:00,
2013-03-08 18:07:00,35.6,18.3,18.63,WNW,300,0.0,0.0,49,0.00,,---,0.00,VWS V13.01,2013-03-08 23:07:00,
2013-03-08 18:12:00,35.4,18.6,18.63,NW,306,0.0,0.0,50,0.00,,---,0.00,VWS V13.01,2013-03-08 23:12:00,
2013-03-08 18:17:00,35.2,18.5,18.63,NW,306,0.0,0.0,50,0.00,,---,0.00,VWS V13.01,2013-03-08 23:17:00,
2013-03-08 18:22:00,34.9,18.1,18.63,NW,306,0.0,0.0,50,0.00,,---,0.00,VWS V13.01,2013-03-08 23:22:00,
2013-03-08 18:28:00,34.5,18.3,18.63,NW,306,0.0,0.0,51,0.00,,---,0.00,VWS V13.01,2013-03-08 23:28:00,
2013-03-08 18:33:00,34.2,18.4,18.63,NW,306,0.0,0.0,52,0.00,,---,0.00,VWS V13.01,2013-03-08 23:33:00,
2013-03-08 18:38:00,34.0,18.2,18.63,NW,306,0.0,0.0,52,0.00,,---,0.00,VWS V13.01,2013-03-08 23:38:00,
2013-03-08 18:43:00,33.8,18.5,18.63,NW,306,0.0,0.0,53,0.00,,---,0.00,VWS V13.01,2013-03-08 23:43:00,
2013-03-08 18:48:00,33.3,18.4,18.63,NW,306,0.0,0.0,54,0.00,,---,0.00,VWS V13.01,2013-03-08 23:48:00,
2013-03-08 18:53:00,33.1,18.3,18.63,NW,306,0.0,0.0,54,0.00,,---,0.00,VWS V13.01,2013-03-08 23:53:00,
2013-03-08 18:58:00,32.7,18.4,18.63,NW,306,0.0,0.0,55,0.00,,---,0.00,VWS V13.01,2013-03-08 23:58:00,
2013-03-08 19:03:00,32.5,18.6,18.63,NW,306,0.0,0.0,56,0.00,,---,0.00,VWS V13.01,2013-03-09 00:03:00,
2013-03-08 19:08:00,32.4,18.4,18.63,NW,306,0.0,0.0,56,0.00,,---,0.00,VWS V13.01,2013-03-09 00:08:00,
2013-03-08 19:13:00,32.0,18.5,18.63,NW,306,0.0,0.0,57,0.00,,---,0.00,VWS V13.01,2013-03-09 00:13:00,
2013-03-08 19:18:00,31.6,18.2,18.63,NW,306,0.0,0.0,57,0.00,,---,0.00,VWS V13.01,2013-03-09 00:18:00,
2013-03-08 19:24:00,31.3,18.2,18.63,NW,306,0.0,0.0,58,0.00,,---,0.00,VWS V13.01,2013-03-09 00:24:00,
2013-03-08 19:29:00,31.1,18.5,18.63,NW,306,0.0,0.0,59,0.00,,---,0.00,VWS V13.01,2013-03-09 00:29:00,
2013-03-08 19:34:00,30.9,18.3,18.63,NW,306,0.0,0.0,59,0.00,,---,0.00,VWS V13.01,2013-03-09 00:34:00,
2013-03-08 19:39:00,30.7,18.5,18.63,NW,306,0.0,0.0,60,0.00,,---,0.00,VWS V13.01,2013-03-09 00:39:00,
2013-03-08 19:44:00,30.6,18.3,18.63,NW,306,0.0,0.0,60,0.00,,---,0.00,VWS V13.01,2013-03-09 00:44:00,
2013-03-08 19:49:00,30.6,18.3,18.63,NW,306,0.0,0.0,60,0.00,,---,0.00,VWS V13.01,2013-03-09 00:49:00,
2013-03-08 19:54:00,30.2,18.4,18.63,NW,306,0.0,0.0,61,0.00,,---,0.00,VWS V13.01,2013-03-09 00:54:00,
2013-03-08 19:59:00,29.8,18.4,18.63,NW,306,0.0,0.0,62,0.00,,---,0.00,VWS V13.01,2013-03-09 00:59:00,
2013-03-08 20:04:00,29.5,18.5,18.63,NW,306,0.0,0.0,63,0.00,,---,0.00,VWS V13.01,2013-03-09 01:04:00,
2013-03-08 20:09:00,29.3,18.3,18.63,NW,306,0.0,0.0,63,0.00,,---,0.00,VWS V13.01,2013-03-09 01:09:00,
2013-03-08 20:15:00,28.9,18.3,18.63,NW,306,0.0,0.0,64,0.00,,---,0.00,VWS V13.01,2013-03-09 01:15:00,
2013-03-08 20:20:00,28.8,18.1,18.63,NW,306,0.0,0.0,64,0.00,,---,0.00,VWS V13.01,2013-03-09 01:20:00,
2013-03-08 20:25:00,28.6,18.3,18.63,NW,306,0.0,0.0,65,0.00,,---,0.00,VWS V13.01,2013-03-09 01:25:00,
2013-03-08 20:30:00,28.2,18.0,18.63,NW,306,0.0,0.0,65,0.00,,---,0.00,VWS V13.01,2013-03-09 01:30:00,
2013-03-08 20:35:00,28.0,18.2,18.63,NW,306,0.0,0.0,66,0.00,,---,0.00,VWS V13.01,2013-03-09 01:35:00,
2013-03-08 20:40:00,27.9,18.0,18.63,NW,306,0.0,0.0,66,0.00,,---,0.00,VWS V13.01,2013-03-09 01:40:00,
2013-03-08 20:45:00,27.7,18.2,18.63,NW,306,0.0,0.0,67,0.00,,---,0.00,VWS V13.01,2013-03-09 01:45:00,
2013-03-08 20:50:00,27.5,18.0,18.63,NW,306,0.0,0.0,67,0.00,,---,0.00,VWS V13.01,2013-03-09 01:50:00,
2013-03-08 20:55:00,27.3,17.8,18.63,NW,306,0.0,0.0,67,0.00,,---,0.00,VWS V13.01,2013-03-09 01:55:00,
2013-03-08 21:00:00,27.1,18.0,18.63,NW,306,0.0,0.0,68,0.00,,---,0.00,VWS V13.01,2013-03-09 02:00:00,
2013-03-08 21:06:00,27.0,17.8,18.63,NW,306,0.0,0.0,68,0.00,,---,0.00,VWS V13.01,2013-03-09 02:06:00,
2013-03-08 21:11:00,27.0,18.2,18.63,NW,306,0.0,0.0,69,0.00,,---,0.00,VWS V13.01,2013-03-09 02:11:00,
2013-03-08 21:16:00,26.8,18.0,18.63,NW,306,0.0,0.0,69,0.00,,---,0.00,VWS V13.01,2013-03-09 02:16:00,
2013-03-08 21:21:00,26.6,18.1,18.63,NW,306,0.0,0.0,70,0.00,,---,0.00,VWS V13.01,2013-03-09 02:21:00,
2013-03-08 21:26:00,26.6,18.1,18.63,NW,306,0.0,0.0,70,0.00,,---,0.00,VWS V13.01,2013-03-09 02:26:00,
2013-03-08 21:31:00,26.4,18.0,18.63,NW,306,0.0,0.0,70,0.00,,---,0.00,VWS V13.01,2013-03-09 02:31:00,
2013-03-08 21:36:00,26.4,18.0,18.63,NW,306,0.0,0.0,70,0.00,,---,0.00,VWS V13.01,2013-03-09 02:36:00,
2013-03-08 21:41:00,26.4,18.0,18.63,NW,306,0.0,0.0,70,0.00,,---,0.00,VWS V13.01,2013-03-09 02:41:00,
2013-03-08 21:46:00,26.2,18.1,18.63,NW,306,0.0,0.0,71,0.00,,---,0.00,VWS V13.01,2013-03-09 02:46:00,
2013-03-08 21:51:00,26.1,17.6,18.63,NW,306,0.0,0.0,70,0.00,,---,0.00,VWS V13.01,2013-03-09 02:51:00,
2013-03-08 21:57:00,25.9,17.5,18.63,NW,306,0.0,0.0,70,0.00,,---,0.00,VWS V13.01,2013-03-09 02:57:00,
2013-03-08 22:02:00,25.7,17.6,18.63,NW,306,0.0,0.0,71,0.00,,---,0.00,VWS V13.01,2013-03-09 03:02:00,
2013-03-08 22:07:00,25.7,17.6,18.63,NW,306,0.0,0.0,71,0.00,,---,0.00,VWS V13.01,2013-03-09 03:07:00,
2013-03-08 22:12:00,25.5,17.4,18.63,NW,306,0.0,0.0,71,0.00,,---,0.00,VWS V13.01,2013-03-09 03:12:00,
2013-03-08 22:17:00,25.5,17.8,18.63,NW,306,0.0,0.0,72,0.00,,---,0.00,VWS V13.01,2013-03-09 03:17:00,
2013-03-08 22:22:00,25.3,17.6,18.63,NW,306,0.0,0.0,72,0.00,,---,0.00,VWS V13.01,2013-03-09 03:22:00,
2013-03-08 22:27:00,25.3,17.6,18.63,West,261,3.6,3.6,72,0.00,,---,0.00,VWS V13.01,2013-03-09 03:27:00,
2013-03-08 22:32:00,25.0,17.2,18.63,West,270,2.7,4.0,72,0.00,,---,0.00,VWS V13.01,2013-03-09 03:32:00,
2013-03-08 22:37:00,25.2,17.7,18.63,West,265,3.6,5.8,73,0.00,,---,0.00,VWS V13.01,2013-03-09 03:37:00,
2013-03-08 22:42:00,25.3,17.9,18.63,West,263,0.0,3.6,73,0.00,,---,0.00,VWS V13.01,2013-03-09 03:42:00,
2013-03-08 22:47:00,25.5,18.4,18.63,WSW,252,3.1,4.9,74,0.00,,---,0.00,VWS V13.01,2013-03-09 03:47:00,
2013-03-08 22:52:00,25.9,19.1,18.63,WSW,251,3.6,4.0,75,0.00,,---,0.00,VWS V13.01,2013-03-09 03:52:00,
2013-03-08 22:57:00,25.9,18.8,18.63,WSW,251,2.7,4.0,74,0.00,,---,0.00,VWS V13.01,2013-03-09 03:57:00,
2013-03-08 23:02:00,26.1,19.2,18.63,WSW,241,2.7,4.0,75,0.00,,---,0.00,VWS V13.01,2013-03-09 04:02:00,
2013-03-08 23:07:00,25.9,19.1,18.63,West,265,2.2,4.0,75,0.00,,---,0.00,VWS V13.01,2013-03-09 04:07:00,
2013-03-08 23:12:00,26.1,19.2,18.63,West,265,0.0,0.0,75,0.00,,---,0.00,VWS V13.01,2013-03-09 04:12:00,
2013-03-08 23:17:00,26.1,19.2,18.63,WSW,249,0.0,0.0,75,0.00,,---,0.00,VWS V13.01,2013-03-09 04:17:00,
2013-03-08 23:23:00,26.1,19.2,18.63,WSW,252,0.0,0.0,75,0.00,,---,0.00,VWS V13.01,2013-03-09 04:23:00,
2013-03-08 23:28:00,26.1,19.2,18.63,WSW,251,0.0,0.0,75,0.00,,---,0.00,VWS V13.01,2013-03-09 04:28:00,
2013-03-08 23:33:00,26.1,19.5,18.63,WSW,253,0.0,0.0,76,0.00,,---,0.00,VWS V13.01,2013-03-09 04:33:00,
2013-03-08 23:38:00,26.2,19.7,18.63,WSW,248,4.9,4.9,76,0.00,,---,0.00,VWS V13.01,2013-03-09 04:38:00,
2013-03-08 23:43:00,26.2,19.7,18.63,WSW,246,3.6,4.9,76,0.00,,---,0.00,VWS V13.01,2013-03-09 04:43:00,
2013-03-08 23:48:00,26.1,19.5,18.63,West,259,2.7,4.9,76,0.00,,---,0.00,VWS V13.01,2013-03-09 04:48:00,
2013-03-08 23:53:00,26.2,19.7,18.63,WSW,249,3.6,4.0,76,0.00,,---,0.00,VWS V13.01,2013-03-09 04:53:00,
2013-03-08 23:58:00,26.1,19.5,18.63,WSW,253,2.7,4.0,76,0.00,,---,0.00,VWS V13.01,2013-03-09 04:58:00,